Location: Newark
(40.3500°N, 15.2333°E)
Time: 21:28:53
(UTC+00:00)

Vanguard 2 - All Passes

Search period start: 26 January 2020 00:00
Search period end: 05 February 2020 00:00
Orbit: 553 x 2938 km, 32.9° (Epoch: 25 January)

Date Brightness Start Highest point End Pass type
(mag) Time Alt. Az. Time Alt. Az. Time Alt. Az.
26 Jan - 07:36:55 10° SSW 07:49:06 27° SSE 07:58:07 10° E daylight
26 Jan - 09:46:30 10° SW 09:59:21 46° SSE 10:07:22 10° E daylight
26 Jan - 11:58:32 10° WSW 12:08:44 51° S 12:14:53 10° ESE daylight
26 Jan - 14:10:39 10° W 14:16:49 28° SSW 14:21:08 10° SSE daylight
27 Jan - 05:48:58 10° S 05:56:28 14° SE 06:03:09 10° ESE visible
27 Jan - 07:53:29 10° SSW 08:07:00 34° SSE 08:16:35 10° E daylight
27 Jan - 10:04:10 10° WSW 10:17:15 51° S 10:25:16 10° E daylight
27 Jan - 12:16:35 10° W 12:26:32 49° SSW 12:32:34 10° ESE daylight
27 Jan - 14:29:02 10° W 14:34:19 22° SSW 14:38:14 10° SSE daylight
28 Jan - 06:03:20 10° S 06:14:16 21° SE 06:23:26 10° ESE daylight
28 Jan - 08:10:28 10° SW 08:24:54 41° SSE 08:34:46 10° E daylight
28 Jan - 10:22:01 10° WSW 10:35:10 55° S 10:43:06 10° ESE daylight
28 Jan - 12:34:41 10° W 12:44:17 45° SSW 12:50:11 10° SE daylight
28 Jan - 14:47:47 10° WSW 14:51:42 16° SW 14:54:52 10° S daylight
29 Jan - 06:18:59 10° SSW 06:32:03 27° SSE 06:42:36 10° E daylight
29 Jan - 08:27:47 10° SW 08:42:49 48° SSE 08:52:49 10° E daylight
29 Jan - 10:40:00 10° WSW 10:53:03 57° S 11:00:54 10° ESE daylight
29 Jan - 12:52:52 10° W 13:01:56 39° SSW 13:07:40 10° SE daylight
29 Jan - 15:08:04 10° SW 15:09:01 10° SW 15:09:54 10° SW daylight
30 Jan - 04:33:07 10° SSE 04:39:19 13° SE 04:45:13 10° ESE visible
30 Jan - 06:35:19 10° SSW 06:49:52 34° SSE 07:01:13 10° E daylight
30 Jan - 08:45:21 10° WSW 09:00:45 53° SSE 09:10:47 10° E daylight
30 Jan - 10:58:02 10° W 11:10:55 57° S 11:18:38 10° ESE daylight
30 Jan - 13:11:07 10° W 13:19:30 32° SSW 13:24:59 10° SSE daylight
31 Jan - 04:46:31 10° S 04:56:57 19° SE 05:06:32 10° ESE visible
31 Jan - 06:52:07 10° SW 07:07:42 41° SSE 07:19:32 10° E daylight
31 Jan - 09:03:07 10° WSW 09:18:41 58° S 09:28:40 10° E daylight
31 Jan - 11:16:09 10° W 11:28:45 54° SSW 11:36:18 10° ESE daylight
31 Jan - 13:29:32 10° W 13:36:56 25° SW 13:42:03 10° SSE daylight
01 Feb - 05:01:46 10° S 05:14:36 25° SE 05:26:06 10° E visible
01 Feb - 07:09:17 10° SW 07:25:33 47° SSE 07:37:40 10° E daylight
01 Feb - 09:21:02 10° WSW 09:36:37 61° S 09:46:30 10° E daylight
01 Feb - 11:34:18 10° W 11:46:29 49° SSW 11:53:54 10° SE daylight
01 Feb - 13:48:17 10° W 13:54:15 19° SW 13:58:42 10° S daylight
02 Feb - 05:17:49 10° SSW 05:32:15 32° SSE 05:44:59 10° E visible
02 Feb - 07:26:42 10° SW 07:43:28 54° SSE 07:55:41 10° E daylight
02 Feb - 09:39:03 10° WSW 09:54:33 62° S 10:04:18 10° ESE daylight
02 Feb - 11:52:31 10° W 12:04:08 43° SSW 12:11:21 10° SE daylight
02 Feb - 14:07:49 10° WSW 14:11:28 13° SW 14:14:32 10° SSW daylight
03 Feb - 03:31:01 10° SSE 03:39:33 16° SE 03:48:03 10° ESE visible
03 Feb - 05:34:25 10° SSW 05:49:58 39° SSE 06:03:28 10° E visible
03 Feb - 07:44:21 10° WSW 08:01:24 59° SSE 08:13:37 10° E daylight
03 Feb - 09:57:09 10° W 10:12:26 60° S 10:22:02 10° ESE daylight
03 Feb - 12:10:50 10° W 12:21:39 36° SSW 12:28:37 10° SSE daylight
04 Feb - 03:45:34 10° S 03:57:01 22° SE 04:08:25 10° E visible
04 Feb - 05:51:23 10° SW 06:07:44 46° SSE 06:21:43 10° E daylight
04 Feb - 08:02:10 10° WSW 08:19:21 62° S 08:31:31 10° E daylight
04 Feb - 10:15:17 10° W 10:30:17 57° SSW 10:39:41 10° ESE daylight
04 Feb - 12:29:17 10° W 12:39:03 29° SW 12:45:39 10° SSE daylight
